User: anonymous   Login
Location: Meetinghouse Hill
(42.7686°N, 71.7752°W)
Time: 11:26:43
(UTC-04:00)
Language:

Iridium 34 - Orbit

View from above orbital plane
View from above orbital plane
View from above satellite
View from above satellite

Ground track
Ground track

The orbit data is extracted from the following two-line orbital elements,

1 24969U 97056E   16208.24003599  .00000148  00000-0  45743-4 0  9996
2 24969  86.3964  95.0971 0002233  85.7331 274.4120 14.34222798985819
Epoch (UTC): 26 July 2016 05:45:39
Eccentricity: 0.0002233
inclination: 86.3964°
perigee height: 776 km
apogee height: 779 km
right ascension of ascending node: 95.0971°
argument of perigee: 85.7331°
revolutions per day: 14.34222798
mean anomaly at epoch: 274.4120°
orbit number at epoch: 98581

The dashed part of the orbit path shows where the satellite is in the earth's shadow,  

DLR